Location: Burleson Alternative School
(32.5290°N, 97.3406°W)
Time: 09:56:28
(UTC+00:00)

Vanguard 2 Rocket - Pass Details

Date: 16 November 2025
Orbit: 553 x 3287 km, 32.9° (Epoch: 07 December)

Event Time Altitude Azimuth Distance (km) Brightness Sun altitude
Rises 00:57:59 0° 262° (W) 2,713 11.0 -19.0°
Reaches altitude 10° 01:00:02 10° 262° (W) 1,838 9.7 -19.4°
Maximum altitude 01:04:00 89° 173° (S) 634 6.0 -20.2°
Enters shadow 01:05:15 48° 84° (E) 865 6.3 -20.5°
